Miscellaneous Local Product
Issued by NWS North Platte, NE

Home | Current Version | Previous Version | Text Only | Print | Product List | Glossary On
Versions: 1 2 3 4 5 6 7 8 9 10 11 12 13 14 15 16 17 18 19 20 21 22 23 24 25 26 27 28 29 30 31 32 33 34 35 36 37 38 39 40 41 42 43 44 45 46 47 48 49 50
035
AXUS43 KLBF 190210
MISLBF


WESTERN AND NORTH CENTRAL NEBRASKA HOURLY WEATHER ROUNDUP
NATIONAL WEATHER SERVICE NORTH PLATTE NE
800 PM CST WED JAN 18 2017

NOTE: "FAIR" INDICATES FEW OR NO CLOUDS BELOW 12,000 FEET WITH NO
SIGNIFICANT WEATHER AND/OR OBSTRUCTIONS TO VISIBILITY.

NOTE: STATIONS NOT REPORTING VARIABLES SUCH AS SKY/WEATHER OR
PRESSURE ARE PROVIDED BY RAWS AND APRS NETWORKS AND ARE NOT UNDER
NATIONAL WEATHER SERVICE QUALITY CONTROL.

...OBSERVATIONS IN AND NEAR THE EASTERN PANHANDLE OF NEBRASKA...

CITY           SKY/WX    TMP DP  RH WIND       PRES   REMARKS
PINE RIDGE     CLOUDY    36  27  69 W3        29.66S
CHADRON        CLOUDY    28  23  81 CALM      29.67S
ALLIANCE       CLOUDY    28  23  81 S8        29.69F WCI  20
SIDNEY         CLOUDY    30  25  81 SW12      29.73F WCI  20
CRESCENT LAKE    N/A     50  27  41 S6          N/A
$$

...OBSERVATIONS IN NORTHERN NEBRASKA AND FAR SOUTHERN SOUTH DAKOTA...

CITY           SKY/WX    TMP DP  RH WIND       PRES   REMARKS
WINNER         FAIR      45  24  43 S14       29.67F
VALENTINE      CLOUDY    39  24  55 SW13      29.69S WCI  31
THEDFORD       CLEAR     37  31  78 S7        29.74S WCI  32
AINSWORTH      CLEAR     39  28  66 S13       29.71S WCI  31
O`NEILL        CLEAR     37  34  87 S10       29.76S WCI  30
ORD            CLOUDY    33  30  88 CALM      29.80S
BROKEN BOW     PTCLDY    35  33  92 SE7       29.78F WCI  29
VALENTINE NWR    N/A     36  24  61 S7          N/A  WCI  30
BUTTE            N/A     39  33  79 S12         N/A  WCI  32
HALSEY           N/A     40  30  67 S8          N/A  WCI  34
SARGENT          N/A     35  28  76 CALM        N/A
CHAMBERS         N/A     37  34  88 S3          N/A
EWING            N/A     38  35  90 S6          N/A  WCI  33
$$

...OBSERVATIONS IN SOUTHWEST NEBRASKA AND FAR NORTHEAST COLORADO...

CITY           SKY/WX    TMP DP  RH WIND       PRES   REMARKS
WRAY           FAIR      32  27  80 W5        29.76  WCI  27
HOLYOKE        FAIR      32  28  86 SW6       29.75F WCI  26
IMPERIAL       CLEAR     30  26  85 S5        29.75F WCI  25
OGALLALA       CLEAR     35  30  82 SW6       29.75F WCI  30
NORTH PLATTE   CLOUDY    31  28  89 SE5       29.77F WCI  26
MCCOOK         CLEAR     37  34  89 S5        29.80S WCI  33
LEXINGTON      CLOUDY    40  35  84 CALM      29.81R
STAPLETON        N/A     32  29  88 CALM        N/A
GOTHENBURG       N/A     41  34  76 S5          N/A
CALLAWAY         N/A     34  30  86 S6          N/A  WCI  29
$$

...OBSERVATIONS IN CENTRAL LINCOLN COUNTY AREA...

CITY           SKY/WX    TMP DP  RH WIND       PRES   REMARKS
N.P. AIRPORT   CLOUDY    31  28  89 SE5       29.77F WCI  26
N.P. DOWNTOWN    N/A     34  30  85 CALM        N/A
N.P. SOUTHEAST   N/A     32  28  86 CALM        N/A
N.P. HILLCREST   N/A     34  32  92 E5          N/A  WCI  30
$$

...SOME OBSERVATIONS FROM AROUND THE REGION...

CITY           SKY/WX    TMP DP  RH WIND       PRES   REMARKS
LARAMIE        CLOUDY    19  14  81 NE8       29.81F WCI   9
CHEYENNE       CLOUDY    33  18  53 W9        29.74F WCI  25
DENVER         CLOUDY    34  20  56 S7        29.73F WCI  28
AKRON          CLOUDY    32  17  54 SW9       29.74F WCI  24
SCOTTSBLUFF    CLOUDY    39  23  52 CALM      29.70F
RAPID CITY     CLOUDY    26  21  81 N5        29.60F WCI  20
BISMARCK       CLOUDY    20  13  74 SE5       29.65S WCI  13
PIERRE         CLOUDY    25  20  81 E6        29.66F WCI  18
SIOUX FALLS    CLEAR     42  38  85 S15       29.77F
OMAHA          CLEAR     40  34  79 S9        29.90S WCI  34
GRAND ISLAND   CLEAR     37  37 100 S9        29.84S WCI  30
KANSAS CITY    CLEAR     39  34  82 S10       29.98F WCI  32
WICHITA        MOCLDY    45  38  76 SE5       29.93S
OKLAHOMA CITY  MOCLDY    48  44  86 S6        29.95F
DALLAS         CLOUDY    53  50  89 CALM      29.98S
AMARILLO       CLEAR     45  37  73 S10       29.86F
DODGE CITY     CLEAR     45  41  86 S15       29.84S
HAYS           CLEAR     41  39  93 SE9       29.84F
GOODLAND       CLEAR     38  32  79 S9        29.77F WCI  31
$$




USA.gov is the U.S. government's official web portal to all federal, state and local government web resources and services.